Weather History for Mobridge, SD

Change the Weather History Date:

Thursday, February 7, 2013

  Actual Average Record
Temperature  
Mean Temperature 26 °F 18 °F  
Max Temperature 29 °F 29 °F 62 °F (1991)
Min Temperature 22 °F 8 °F -32 °F (1933)
Degree Days  
Heating Degree Days 39 46  
Month to date heating degree days 279 329  
Since 1 July heating degree days 4964 5062  
Cooling Degree Days 0 0  
Month to date cooling degree days 0 0  
Year to date cooling degree days 0 0  
Moisture  
Dew Point 22 °F    
Average Humidity 87    
Maximum Humidity 96    
Minimum Humidity 78    
Precipitation  
Precipitation T in 0.01 in 0.23 in (1937)
Month to date precipitation 0.03 0.09  
Year to date precipitation 0.63 0.38  
Snow  
Snow T in - - ()
Month to date snowfall 0.2  
Since 1 July snowfall 20.0  
Snow Depth T in    
Sea Level Pressure  
Sea Level Pressure 30.13 in    
Wind  
Wind Speed 7 mph (East)    
Max Wind Speed 18 mph    
Max Gust Speed 22 mph    
Visibility 6 miles    
Events Snow    
T = Trace of Precipitation, MM = Missing Value Source: NWS Daily Summary

Daily Weather History Graph

Daily Weather History Graph

Search for Another Location

Airport:

Trip Planner

Search our weather history database for the weather conditions in past years. The results will help you decide how hot, cold, wet, or windy it might be!

Date:

Astronomy

Feb. 07, 2013 Rise Set
Actual Time 7:54 AM CST 5:57 PM CST
Civil Twilight 7:23 AM CST 6:28 PM CST
Nautical Twilight 6:48 AM CST 7:03 PM CST
Astronomical Twilight 6:14 AM CST 7:38 PM CST
Moon 5:40 AM CST (2/7) 3:19 PM CST (2/7)
Length of Visible Light 11h 04m
Length of Day
10h 02m
Waning Crescent, 9% of the Moon is Illuminated
Feb 7
Waning Crescent
Feb 10
New
Feb 17
First Quarter
Feb 25
Full
Mar 4
Last Quarter

Hourly Weather History & Observations

Time (CST) Temp. Windchill Dew Point Humidity Pressure Visibility Wind Dir Wind Speed Gust Speed Precip Events Conditions
12:39 AM 26.6 °F 21.2 °F 24.8 °F 93% 30.02 in 7.0 mi North 4.6 mph - N/A   Overcast
12:52 AM 27.0 °F 23.0 °F 24.1 °F 89% 30.09 in 7.0 mi North 3.5 mph - N/A   Overcast
1:00 AM 26.6 °F 20.0 °F 24.8 °F 93% 30.02 in 7.0 mi NNE 5.8 mph - N/A   Overcast
1:34 AM 26.6 °F 20.0 °F 24.8 °F 93% 30.02 in 4.0 mi NE 5.8 mph - N/A   Overcast
1:52 AM 26.1 °F 19.4 °F 24.1 °F 92% 30.07 in 4.0 mi NE 5.8 mph - N/A   Overcast
2:52 AM 26.1 °F 21.9 °F 24.1 °F 92% 30.10 in 5.0 mi ENE 3.5 mph - N/A   Overcast
2:59 AM 26.6 °F - 24.8 °F 93% 30.05 in 5.0 mi Calm Calm - N/A   Overcast
3:06 AM 26.6 °F - 24.8 °F 93% 30.05 in 5.0 mi Calm Calm - N/A   Overcast
3:52 AM 26.1 °F - 25.0 °F 96% 30.11 in 6.0 mi Calm Calm - N/A   Overcast
4:17 AM 24.8 °F 17.9 °F 21.2 °F 86% 30.05 in 6.0 mi East 5.8 mph - N/A   Overcast
4:25 AM 24.8 °F 19.1 °F 21.2 °F 86% 30.05 in 6.0 mi East 4.6 mph - N/A   Overcast
4:52 AM 25.0 °F 18.1 °F 21.9 °F 88% 30.12 in 7.0 mi East 5.8 mph - N/A   Overcast
5:05 AM 24.8 °F 19.1 °F 21.2 °F 86% 30.06 in 7.0 mi East 4.6 mph - N/A   Overcast
5:52 AM 24.1 °F 16.0 °F 21.0 °F 88% 30.13 in 4.0 mi East 6.9 mph - N/A   Overcast
6:10 AM 24.8 °F 16.9 °F 21.2 °F 86% 30.06 in 4.0 mi East 6.9 mph - N/A   Overcast
6:52 AM 23.0 °F 14.7 °F 21.0 °F 92% 30.13 in 3.0 mi East 6.9 mph - N/A   Overcast
7:29 AM 23.0 °F 14.7 °F 21.2 °F 93% 30.08 in 3.0 mi East 6.9 mph - N/A   Overcast
7:52 AM 23.0 °F 13.1 °F 21.0 °F 92% 30.14 in 3.0 mi East 9.2 mph - N/A   Overcast
8:03 AM 23.0 °F 13.1 °F 21.2 °F 93% 30.07 in 2.5 mi East 9.2 mph - N/A   Overcast
8:14 AM 23.0 °F 14.7 °F 21.2 °F 93% 30.08 in 2.5 mi East 6.9 mph - N/A   Overcast
8:30 AM 23.0 °F 14.7 °F 21.2 °F 93% 30.10 in 2.5 mi East 6.9 mph - 0.00 in Snow Light Snow
8:39 AM 23.0 °F 13.9 °F 21.2 °F 93% 30.10 in 3.0 mi East 8.1 mph - 0.00 in   Overcast
8:52 AM 23.0 °F 14.7 °F 21.0 °F 92% 30.17 in 3.0 mi East 6.9 mph - 0.00 in   Overcast
9:47 AM 21.2 °F 10.9 °F 19.4 °F 93% 30.12 in 4.0 mi East 9.2 mph - N/A   Overcast
9:52 AM 23.0 °F 13.9 °F 21.0 °F 92% 30.19 in 4.0 mi East 8.1 mph - N/A   Overcast
10:52 AM 24.1 °F 16.0 °F 21.0 °F 88% 30.21 in 6.0 mi East 6.9 mph - N/A   Overcast
11:34 AM 24.8 °F 19.1 °F 21.2 °F 86% 30.14 in 7.0 mi ESE 4.6 mph - N/A   Overcast
11:52 AM 25.0 °F 19.3 °F 21.9 °F 88% 30.22 in 6.0 mi ESE 4.6 mph - N/A   Overcast
12:52 PM 27.0 °F 21.6 °F 23.0 °F 85% 30.21 in 8.0 mi South 4.6 mph - N/A   Overcast
1:52 PM 27.0 °F - 23.0 °F 85% 30.20 in 10.0 mi Calm Calm - N/A   Overcast
2:52 PM 28.0 °F 24.2 °F 23.0 °F 81% 30.18 in 10.0 mi SE 3.5 mph - N/A   Overcast
3:52 PM 28.0 °F 24.2 °F 23.0 °F 81% 30.19 in 10.0 mi East 3.5 mph - N/A   Overcast
4:11 PM 28.4 °F 22.2 °F 23.0 °F 80% 30.11 in 10.0 mi East 5.8 mph - N/A   Overcast
4:52 PM 28.9 °F 23.9 °F 23.0 °F 78% 30.19 in 10.0 mi East 4.6 mph - N/A   Overcast
5:31 PM 28.4 °F 22.2 °F 23.0 °F 80% 30.12 in 10.0 mi SE 5.8 mph - N/A   Overcast
5:52 PM 28.0 °F 21.7 °F 23.0 °F 81% 30.20 in 10.0 mi SE 5.8 mph - N/A   Overcast
6:52 PM 27.0 °F 18.7 °F 23.0 °F 85% 30.21 in 10.0 mi SE 8.1 mph - N/A   Overcast
7:52 PM 26.1 °F 15.6 °F 21.9 °F 84% 30.22 in 10.0 mi SE 11.5 mph - N/A   Overcast
8:36 PM 24.8 °F 14.0 °F 21.2 °F 86% 30.13 in 10.0 mi SE 11.5 mph - N/A   Overcast
8:52 PM 25.0 °F 14.8 °F 21.9 °F 88% 30.21 in 10.0 mi SSE 10.4 mph - N/A   Overcast
9:52 PM 24.1 °F 13.1 °F 21.0 °F 88% 30.22 in 10.0 mi SE 11.5 mph - N/A   Overcast
10:25 PM 23.0 °F 10.6 °F 21.2 °F 93% 30.14 in 10.0 mi SE 13.8 mph - N/A   Overcast
10:52 PM 23.0 °F 11.7 °F 21.0 °F 92% 30.22 in 8.0 mi SSE 11.5 mph - N/A   Overcast
11:13 PM 23.0 °F 10.1 °F 21.2 °F 93% 30.13 in 6.0 mi SSE 15.0 mph - N/A   Overcast
11:52 PM 21.9 °F 9.2 °F 21.0 °F 96% 30.21 in 5.0 mi SSE 13.8 mph - N/A   Overcast